Location: Chagrin Falls Park
(41.4139°N, 81.3865°W)
Time: 08:39:32
(UTC+00:00)

STARLINK-2727 - Pass Details

Date: 13 December 2021
Orbit: 546 x 548 km, 53.1° (Epoch: 22 January)

Event Time Altitude Azimuth Distance (km) Brightness Sun altitude
Rises 00:35:36 0° 306° (NW) 2,721 7.8 -29.0°
Reaches altitude 10° 00:37:50 10° 305° (NW) 1,825 6.8 -29.4°
Enters shadow 00:39:40 25° 301° (WNW) 1,123 5.6 -29.7°
